Leeuwarden, Netherlands

10:20 AM CET on February 22, 2017 (GMT +0100)
Leeuwarden Air Base

Weather History for EHLW - December, 2012

Change the Weather History Date:

Wednesday, December 5, 2012

  Actual Average Record
Temperature  
Mean Temperature 32 °F -  
Max Temperature 37 °F 40 °F 55 °F (2006)
Min Temperature 28 °F 32 °F 16 °F (2016)
Degree Days  
Heating Degree Days 32    
Moisture  
Dew Point 30 °F    
Average Humidity 88    
Maximum Humidity 100    
Minimum Humidity 67    
Precipitation  
Precipitation 0.16 in - - ()
Sea Level Pressure  
Sea Level Pressure 29.56 in    
Wind  
Wind Speed 8 mph ()    
Max Wind Speed 34 mph    
Max Gust Speed 47 mph    
Visibility 4.6 miles    
Events Rain , Snow    
Averages and records for this station are not official NWS values.
T = Trace of Precipitation, MM = Missing Value Source: Averaged Metar Reports

Daily Weather History Graph

Daily Weather History Graph

Search for Another Location

Airport or City:

Trip Planner

Search our weather history database for the weather conditions in past years. The results will help you decide how hot, cold, wet, or windy it might be!

Date:

Astronomy

Dec. 05, 2012 Rise Set
Actual Time 8:34 AM CET 4:20 PM CET
Civil Twilight 7:52 AM CET 5:02 PM CET
Nautical Twilight 7:08 AM CET 5:46 PM CET
Astronomical Twilight 6:26 AM CET 6:29 PM CET
Moon 11:35 PM CET (12/5) 12:13 PM CET (12/5)
Length of Visible Light 9h 09m
Length of Day
7h 46m
Waning Gibbous, 62% of the Moon is Illuminated
Dec 5
Waning Gibbous
Dec 6
Last Quarter
Dec 13
New
Dec 20
First Quarter
Dec 28
Full

Hourly Weather History & Observations

Time (CET) Temp. Windchill Dew Point Humidity Pressure Visibility Wind Dir Wind Speed Gust Speed Precip Events Conditions
12:00 AM 33.8 °F - 32.0 °F 93% 29.50 in 6.2 mi SSW 2.3 mph - N/A Rain Light Rain
12:13 AM 33.8 °F 29.6 °F 32.0 °F 93% 29.50 in 6.2 mi West 4.6 mph - N/A   Overcast
12:25 AM 33.8 °F 30.8 °F 32.0 °F 93% 29.50 in 6.2 mi West 3.5 mph - N/A   Overcast
12:38 AM 33.8 °F 29.6 °F 32.0 °F 93% 29.50 in 2.2 mi WSW 4.6 mph - N/A   Overcast
12:39 AM 33.8 °F 29.6 °F 32.0 °F 93% 29.50 in 6.2 mi WSW 4.6 mph - N/A   Overcast
12:55 AM 33.8 °F - 32.0 °F 93% 29.50 in 6.2 mi West 2.3 mph - N/A   Overcast
12:59 AM 33.8 °F - 32.0 °F 93% 29.50 in 3.7 mi West 2.3 mph - N/A   Overcast
1:00 AM 34 °F - 32 °F 89% 29.53 in 14 mi West 2.2 mph - - Rain Rain
1:03 AM 33.8 °F - 32.0 °F 93% 29.50 in 6.2 mi West 2.3 mph - N/A   Overcast
1:16 AM 33.8 °F - 32.0 °F 93% 29.50 in 6.2 mi WSW 1.2 mph - N/A   Overcast
1:25 AM 33.8 °F 30.8 °F 32.0 °F 93% 29.53 in 6.2 mi WSW 3.5 mph - N/A   Overcast
1:55 AM 35.6 °F 28.6 °F 32.0 °F 87% 29.53 in 6.2 mi North 9.2 mph - N/A   Overcast
2:25 AM 33.8 °F 27.0 °F 26.6 °F 75% 29.53 in 6.2 mi NNW 8.1 mph - N/A   Overcast
2:55 AM 33.8 °F 26.4 °F 26.6 °F 75% 29.53 in 6.2 mi NNW 9.2 mph - N/A   Mostly Cloudy
3:25 AM 33.8 °F 27.0 °F 28.4 °F 81% 29.53 in 6.2 mi North 8.1 mph - N/A   Overcast
3:55 AM 32.0 °F 27.5 °F 26.6 °F 80% 29.53 in 6.2 mi North 4.6 mph - N/A   Scattered Clouds
4:25 AM 32.0 °F 27.5 °F 26.6 °F 80% 29.53 in 6.2 mi NNW 4.6 mph - N/A   Scattered Clouds
4:55 AM 30.2 °F 26.7 °F 24.8 °F 80% 29.53 in 6.2 mi West 3.5 mph - N/A   Unknown
5:25 AM 30.2 °F 26.7 °F 26.6 °F 86% 29.53 in 6.2 mi West 3.5 mph - N/A   Mostly Cloudy
5:42 AM 30.2 °F 26.7 °F 26.6 °F 86% 29.53 in 4.3 mi WSW 3.5 mph - N/A   Haze
5:46 AM 30.2 °F 26.7 °F 26.6 °F 86% 29.53 in 6.2 mi WSW 3.5 mph - N/A   Mostly Cloudy
5:55 AM 30.2 °F 26.7 °F 26.6 °F 86% 29.53 in 6.2 mi SW 3.5 mph - N/A   Mostly Cloudy
6:08 AM 30.2 °F 26.7 °F 26.6 °F 86% 29.53 in 6.2 mi WSW 3.5 mph - N/A   Mostly Cloudy
6:25 AM 30.2 °F 25.4 °F 26.6 °F 86% 29.53 in 6.2 mi WSW 4.6 mph - N/A   Overcast
6:55 AM 30.2 °F 24.3 °F 26.6 °F 86% 29.53 in 6.2 mi WSW 5.8 mph - N/A   Partly Cloudy
7:00 AM 30 °F - 26 °F 81% 29.56 in 25 mi WSW 4.5 mph - -   Partly Cloudy
7:25 AM 30.2 °F 24.3 °F 26.6 °F 86% 29.56 in 6.2 mi West 5.8 mph - N/A   Partly Cloudy
7:55 AM 28.4 °F 24.6 °F 26.6 °F 93% 29.56 in 6.2 mi WSW 3.5 mph - N/A   Partly Cloudy
8:08 AM 28.4 °F 24.6 °F 24.8 °F 86% 29.56 in 4.3 mi WSW 3.5 mph - N/A   Partly Cloudy
8:12 AM 28.4 °F 24.6 °F 24.8 °F 86% 29.56 in 6.2 mi WSW 3.5 mph - N/A   Scattered Clouds
8:25 AM 30.2 °F - 26.6 °F 86% 29.56 in 6.2 mi South 2.3 mph - N/A   Overcast
8:29 AM 30.2 °F - 28.4 °F 93% 29.56 in 6.2 mi SSE 2.3 mph - N/A   Overcast
8:55 AM 30.2 °F 26.7 °F 28.4 °F 93% 29.56 in 6.2 mi South 3.5 mph - N/A   Mostly Cloudy
9:12 AM 32.0 °F 28.7 °F 28.4 °F 87% 29.56 in - South 3.5 mph - N/A   Mostly Cloudy
9:16 AM 32.0 °F 28.7 °F 28.4 °F 87% 29.56 in 6.2 mi South 3.5 mph - N/A   Mostly Cloudy
9:25 AM 32.0 °F 28.7 °F 28.4 °F 87% 29.56 in 6.2 mi South 3.5 mph - N/A   Partly Cloudy
9:36 AM 32.0 °F 28.7 °F 28.4 °F 87% 29.56 in 6.2 mi South 3.5 mph - N/A   Scattered Clouds
9:55 AM 33.8 °F 30.8 °F 30.2 °F 87% 29.56 in 6.2 mi South 3.5 mph - N/A   Scattered Clouds
9:58 AM 33.8 °F 30.8 °F 30.2 °F 87% 29.56 in 6.2 mi SSW 3.5 mph - N/A   Mostly Cloudy
10:14 AM 35.6 °F 32.8 °F 30.2 °F 81% 29.56 in 6.2 mi WSW 3.5 mph - N/A   Mostly Cloudy
10:21 AM 35.6 °F 30.7 °F 32.0 °F 87% 29.56 in 3.1 mi WSW 5.8 mph - N/A   Mostly Cloudy
10:25 AM 35.6 °F 29.2 °F 30.2 °F 81% 29.56 in - West 8.1 mph - N/A Rain Rain
10:29 AM 35.6 °F 28.0 °F 30.2 °F 81% 29.59 in 5.6 mi West 10.4 mph - N/A Snow Light Snow
10:34 AM 33.8 °F 25.3 °F 30.2 °F 87% 29.59 in 3.1 mi WNW 11.5 mph - N/A Snow Light Snow
10:38 AM 33.8 °F 25.3 °F 30.2 °F 87% 29.59 in - WNW 11.5 mph - N/A Snow Light Snow
10:44 AM 33.8 °F 25.8 °F 30.2 °F 87% 29.59 in 2.2 mi WNW 10.4 mph - N/A Snow Light Snow
10:55 AM 32.0 °F 26.4 °F 30.2 °F 93% 29.59 in - WNW 5.8 mph - N/A Snow Light Snow
10:59 AM 32.0 °F 27.5 °F 30.2 °F 93% 29.59 in 3.1 mi WNW 4.6 mph - N/A Snow Light Snow
11:03 AM 33.8 °F 30.8 °F 30.2 °F 87% 29.59 in 5.0 mi West 3.5 mph - N/A Snow Light Snow
11:05 AM 33.8 °F - 30.2 °F 87% 29.59 in 6.2 mi WNW 2.3 mph - N/A   Mostly Cloudy
11:06 AM 33.8 °F - 30.2 °F 87% 29.59 in 6.2 mi WNW 2.3 mph - N/A   Mostly Cloudy
11:11 AM 33.8 °F - 30.2 °F 87% 29.59 in 6.2 mi WNW 1.2 mph - N/A   Mostly Cloudy
11:12 AM 33.8 °F - 30.2 °F 87% 29.59 in 6.2 mi West 1.2 mph - N/A   Mostly Cloudy
11:13 AM 33.8 °F - 30.2 °F 87% 29.59 in 6.2 mi West 1.2 mph - N/A   Mostly Cloudy
11:14 AM 33.8 °F - 30.2 °F 87% 29.59 in 6.2 mi West 1.2 mph - N/A   Overcast
11:15 AM 33.8 °F - 30.2 °F 87% 29.59 in 6.2 mi West 1.2 mph - N/A   Overcast
11:19 AM 33.8 °F - 32.0 °F 93% 29.59 in 6.2 mi West 1.2 mph - N/A   Overcast
11:24 AM 33.8 °F - 32.0 °F 93% 29.59 in 6.2 mi SW 2.3 mph - N/A   Overcast
11:25 AM 33.8 °F - 32.0 °F 93% 29.59 in 6.2 mi SW 2.3 mph - N/A   Partly Cloudy
11:38 AM 33.8 °F 30.8 °F 32.0 °F 93% 29.59 in 6.2 mi SSW 3.5 mph - N/A   Mostly Cloudy
11:46 AM 33.8 °F 28.6 °F 32.0 °F 93% 29.59 in 4.3 mi SSW 5.8 mph - N/A   Mostly Cloudy
11:48 AM 33.8 °F 28.6 °F 32.0 °F 93% 29.59 in - SW 5.8 mph - N/A Rain , Snow Light Snow
11:55 AM 33.8 °F 27.7 °F 32.0 °F 93% 29.59 in 1.7 mi SW 6.9 mph - N/A Rain , Snow Light Snow
11:58 AM 32.0 °F 24.8 °F 30.2 °F 93% 29.59 in - SW 8.1 mph - N/A Snow Snow
11:59 AM 32.0 °F 24.8 °F 30.2 °F 93% 29.59 in 0.7 mi SW 8.1 mph - N/A Snow Snow
12:07 PM 32.0 °F 24.2 °F 30.2 °F 93% 29.56 in 0.4 mi SW 9.2 mph - N/A Snow Light Snow
12:08 PM 32.0 °F 24.2 °F 30.2 °F 93% 29.56 in - SW 9.2 mph - N/A Snow Light Snow
12:12 PM 32.0 °F 24.8 °F 30.2 °F 93% 29.56 in 3.1 mi SW 8.1 mph - N/A Snow Light Snow
12:15 PM 32.0 °F 25.6 °F 30.2 °F 93% 29.56 in 3.1 mi SW 6.9 mph - N/A Snow Light Snow
12:19 PM 32.0 °F 25.6 °F 30.2 °F 93% 29.56 in 3.1 mi SW 6.9 mph - N/A Snow Light Snow
12:21 PM 32.0 °F 25.6 °F 30.2 °F 93% 29.56 in 3.7 mi SW 6.9 mph - N/A Snow Light Snow
12:25 PM 32.0 °F 25.6 °F 30.2 °F 93% 29.56 in 3.7 mi SW 6.9 mph - N/A Snow Light Snow
12:26 PM 32.0 °F 25.6 °F 30.2 °F 93% 29.56 in - SW 6.9 mph - N/A Snow Light Snow
12:37 PM 32.0 °F 25.6 °F 30.2 °F 93% 29.56 in 3.1 mi SW 6.9 mph - N/A Snow Light Snow
12:41 PM 32.0 °F 24.8 °F 30.2 °F 93% 29.56 in 5.6 mi SW 8.1 mph - N/A Snow Light Snow
12:45 PM 32.0 °F 25.6 °F 30.2 °F 93% 29.56 in 6.2 mi SW 6.9 mph - N/A Snow Light Snow
12:49 PM 32.0 °F 25.6 °F 32.0 °F 100% 29.56 in 6.2 mi SW 6.9 mph - N/A Snow Light Snow
12:55 PM 33.8 °F 27.7 °F 32.0 °F 93% 29.56 in 3.7 mi SW 6.9 mph - N/A Snow Light Snow
12:58 PM 33.8 °F 27.7 °F 32.0 °F 93% 29.56 in - SW 6.9 mph - N/A Snow Light Snow
1:00 PM 33 °F - 31 °F 90% 29.58 in 2 mi SW 6.7 mph - - Snow Light Snow
1:03 PM 32.0 °F 24.8 °F 32.0 °F 100% 29.56 in 3.1 mi SW 8.1 mph - N/A Snow Light Snow
1:04 PM 32.0 °F 24.8 °F 30.2 °F 93% 29.56 in - SW 8.1 mph - N/A Snow Light Snow
1:05 PM 32.0 °F 24.8 °F 32.0 °F 100% 29.56 in 1.4 mi SW 8.1 mph - N/A Snow Light Snow
1:07 PM 32.0 °F 24.8 °F 30.2 °F 93% 29.56 in 1.1 mi SW 8.1 mph - N/A Snow Light Snow
1:08 PM 32.0 °F 24.2 °F 30.2 °F 93% 29.56 in 1.0 mi SW 9.2 mph - N/A Snow Light Snow
1:11 PM 32.0 °F 24.2 °F 30.2 °F 93% 29.56 in 1.0 mi SW 9.2 mph - N/A Snow Light Snow
1:15 PM 32.0 °F 24.2 °F 30.2 °F 93% 29.56 in 0.8 mi SW 9.2 mph - N/A Snow Snow
1:25 PM 32.0 °F 24.2 °F 30.2 °F 93% 29.56 in 0.7 mi SW 9.2 mph - N/A Snow Light Snow
1:29 PM 32.0 °F 24.2 °F 30.2 °F 93% 29.56 in 0.9 mi SW 9.2 mph - N/A Snow Light Snow
1:31 PM 32.0 °F 24.2 °F 30.2 °F 93% 29.56 in 0.9 mi SW 9.2 mph - N/A Snow Light Snow
1:34 PM 32.0 °F 24.2 °F 30.2 °F 93% 29.56 in 0.8 mi SW 9.2 mph - N/A Snow Light Snow
1:35 PM 32.0 °F 24.2 °F 30.2 °F 93% 29.56 in 0.7 mi SW 9.2 mph - N/A Snow Light Snow
1:36 PM 32.0 °F 24.2 °F 30.2 °F 93% 29.56 in 0.7 mi SW 9.2 mph - N/A Snow Light Snow
1:39 PM 32.0 °F 24.2 °F 30.2 °F 93% 29.56 in 0.7 mi SW 9.2 mph - N/A Snow Light Snow
1:43 PM 32.0 °F 24.2 °F 30.2 °F 93% 29.56 in 0.5 mi SW 9.2 mph - N/A Snow Light Snow
1:47 PM 32.0 °F 24.8 °F 30.2 °F 93% 29.56 in 0.6 mi SW 8.1 mph - N/A Snow Snow
1:48 PM 32.0 °F 24.8 °F 30.2 °F 93% 29.56 in 0.7 mi SW 8.1 mph - N/A Snow Light Snow
1:55 PM 32.0 °F 24.2 °F 30.2 °F 93% 29.56 in 1.1 mi SW 9.2 mph - N/A Snow Light Snow
1:59 PM 32.0 °F 24.2 °F 30.2 °F 93% 29.56 in 4.3 mi SW 9.2 mph - N/A Snow Light Snow
3:25 PM 33.8 °F 24.8 °F 32.0 °F 93% 29.53 in 6.2 mi SW 12.7 mph - N/A   Scattered Clouds
3:44 PM 33.8 °F 25.3 °F 32.0 °F 93% 29.53 in 3.1 mi SW 11.5 mph - N/A   Mostly Cloudy
3:48 PM 33.8 °F 25.8 °F 32.0 °F 93% 29.53 in 1.6 mi WSW 10.4 mph - N/A Rain Rain
3:55 PM 33.8 °F 25.8 °F 32.0 °F 93% 29.56 in - West 10.4 mph - N/A Rain Light Rain Showers
4:02 PM 33.8 °F 25.8 °F 32.0 °F 93% 29.56 in - West 10.4 mph - N/A Rain , Snow Light Snow
4:06 PM 33.8 °F 27.0 °F 32.0 °F 93% 29.53 in 6.2 mi West 8.1 mph - N/A Snow Light Snow
4:10 PM 33.8 °F 27.7 °F 32.0 °F 93% 29.53 in 6.2 mi West 6.9 mph - N/A   Mostly Cloudy
4:16 PM 33.8 °F 27.0 °F 33.8 °F 100% 29.53 in 4.3 mi West 8.1 mph - N/A Rain Light Rain
4:17 PM 33.8 °F 27.0 °F 33.8 °F 100% 29.53 in 6.2 mi West 8.1 mph - N/A Rain Light Rain
4:25 PM 33.8 °F 28.6 °F 32.0 °F 93% 29.53 in 6.2 mi West 5.8 mph - N/A   Mostly Cloudy
4:38 PM 33.8 °F 28.6 °F 32.0 °F 93% 29.53 in 6.2 mi SW 5.8 mph - N/A   Scattered Clouds
4:55 PM 35.6 °F 28.0 °F 33.8 °F 93% 29.53 in 6.2 mi WNW 10.4 mph - N/A   Mostly Cloudy
5:13 PM 35.6 °F 25.9 °F 30.2 °F 81% 29.53 in 3.7 mi WNW 16.1 mph 31.1 mph N/A   Partly Cloudy
5:25 PM 37.4 °F 28.2 °F 28.4 °F 70% 29.53 in 6.2 mi WNW 16.1 mph - N/A   Partly Cloudy
5:38 PM 35.6 °F 27.1 °F 28.4 °F 75% 29.53 in 6.2 mi WNW 12.7 mph - N/A   Unknown
5:55 PM 35.6 °F 27.1 °F 28.4 °F 75% 29.53 in 6.2 mi WNW 12.7 mph - N/A   Partly Cloudy
6:03 PM 32.0 °F 18.1 °F 30.2 °F 93% 29.53 in 1.8 mi NW 27.6 mph 42.6 mph N/A Snow Light Snow
6:07 PM 33.8 °F 21.9 °F 32.0 °F 93% 29.53 in 6.2 mi WNW 21.9 mph 42.6 mph N/A Snow Light Snow
6:12 PM 35.6 °F 26.6 °F 32.0 °F 87% 29.53 in 6.2 mi WNW 13.8 mph 25.3 mph N/A   Partly Cloudy
6:25 PM 35.6 °F 25.5 °F 33.8 °F 93% 29.53 in 6.2 mi NW 17.3 mph - N/A   Mostly Cloudy
6:55 PM 35.6 °F 26.2 °F 28.4 °F 75% 29.53 in 6.2 mi NW 15.0 mph - N/A   Mostly Cloudy
7:00 PM 36 °F - 29 °F 67% 29.57 in 10 mi WNW 15.7 mph - - Rain Rain Showers
7:00 PM 35.6 °F 26.2 °F 28.4 °F 75% 29.56 in 4.3 mi WNW 15.0 mph - N/A   Haze
7:04 PM 35.6 °F 25.9 °F 28.4 °F 75% 29.56 in 6.2 mi WNW 16.1 mph - N/A   Mostly Cloudy
7:17 PM 35.6 °F 25.5 °F 26.6 °F 70% 29.56 in 6.2 mi NW 17.3 mph - N/A   Mostly Cloudy
7:25 PM 35.6 °F 25.2 °F 26.6 °F 70% 29.56 in 6.2 mi NW 18.4 mph - N/A   Mostly Cloudy
7:55 PM 35.6 °F 24.0 °F 26.6 °F 70% 29.56 in 6.2 mi NW 23.0 mph 36.8 mph N/A   Partly Cloudy
7:59 PM 33.8 °F 21.0 °F 28.4 °F 81% 29.56 in - NW 25.3 mph 40.3 mph N/A Snow Light Snow
8:03 PM 33.8 °F 22.5 °F 30.2 °F 87% 29.56 in 6.2 mi NW 19.6 mph - N/A Snow Light Snow
8:16 PM 33.8 °F 23.2 °F 26.6 °F 75% 29.56 in 6.2 mi WNW 17.3 mph - N/A   Partly Cloudy
8:25 PM 35.6 °F 25.2 °F 26.6 °F 70% 29.56 in 6.2 mi WNW 18.4 mph - N/A   Partly Cloudy
8:55 PM 35.6 °F 24.5 °F 26.6 °F 70% 29.53 in 6.2 mi WNW 20.7 mph 32.2 mph N/A   Unknown
9:09 PM 35.6 °F 23.7 °F 28.4 °F 75% 29.56 in - WNW 24.2 mph 36.8 mph N/A   Haze
9:12 PM 32.0 °F 18.1 °F 28.4 °F 87% 29.56 in 1.0 mi NW 27.6 mph 41.4 mph N/A Snow Snow
9:17 PM 30.2 °F 15.4 °F 28.4 °F 93% 29.56 in 0.9 mi NW 28.8 mph 41.4 mph N/A Snow Snow
9:25 PM 32.0 °F 18.4 °F 30.2 °F 93% 29.56 in 0.5 mi NW 26.5 mph - N/A Snow Snow
9:29 PM 32.0 °F 18.4 °F 30.2 °F 93% 29.56 in 1.0 mi NW 26.5 mph 39.1 mph N/A Snow Snow
9:30 PM 32.0 °F 18.1 °F 30.2 °F 93% 29.56 in 3.1 mi NW 27.6 mph 39.1 mph N/A Snow Light Snow
9:38 PM 32.0 °F 18.1 °F 30.2 °F 93% 29.56 in 4.3 mi NW 27.6 mph 39.1 mph N/A Snow Light Snow
9:42 PM 33.8 °F 20.1 °F 32.0 °F 93% 29.56 in 6.2 mi NNW 29.9 mph 43.7 mph N/A Snow Light Snow
9:49 PM 33.8 °F 19.2 °F 32.0 °F 93% 29.56 in 6.2 mi NNW 34.5 mph - N/A   Mostly Cloudy
9:55 PM 33.8 °F 19.6 °F 32.0 °F 93% 29.56 in 6.2 mi NNW 32.2 mph 43.7 mph N/A   Mostly Cloudy
10:09 PM 35.6 °F 21.9 °F 32.0 °F 87% 29.56 in 6.2 mi North 33.4 mph 47.2 mph N/A   Mostly Cloudy
10:25 PM 33.8 °F 20.8 °F 32.0 °F 93% 29.59 in 6.2 mi North 26.5 mph - N/A   Mostly Cloudy
10:44 PM 33.8 °F 21.9 °F 30.2 °F 87% 29.59 in 6.2 mi North 21.9 mph - N/A   Mostly Cloudy
10:55 PM 33.8 °F 22.2 °F 28.4 °F 81% 29.62 in 6.2 mi North 20.7 mph 33.4 mph N/A   Partly Cloudy
11:13 PM 33.8 °F 22.2 °F 26.6 °F 75% 29.62 in 3.7 mi North 20.7 mph - N/A   Haze
11:17 PM 33.8 °F 21.6 °F 26.6 °F 75% 29.62 in 6.2 mi North 23.0 mph - N/A Snow Light Snow
11:25 PM 33.8 °F 22.2 °F 26.6 °F 75% 29.62 in 6.2 mi North 20.7 mph - N/A Snow Light Snow
11:32 PM 33.8 °F 22.2 °F 28.4 °F 81% 29.65 in 3.7 mi North 20.7 mph - N/A Snow Light Snow
11:37 PM 32.0 °F 18.9 °F 30.2 °F 93% 29.65 in 2.2 mi NNW 24.2 mph - N/A Snow Light Snow
11:40 PM 32.0 °F 18.6 °F 30.2 °F 93% 29.65 in 0.8 mi NNW 25.3 mph - N/A Snow Light Snow
11:47 PM 32.0 °F 18.6 °F 30.2 °F 93% 29.65 in 0.7 mi NNW 25.3 mph - N/A Snow Snow
11:51 PM 32.0 °F 18.6 °F 30.2 °F 93% 29.65 in 0.7 mi NNW 25.3 mph - N/A Snow Snow
11:55 PM 32.0 °F 19.2 °F 30.2 °F 93% 29.65 in 1.8 mi North 23.0 mph - N/A Snow Snow Showers